Tracking 19625 objects as of 26-May-2019
HD Live streaming from Space Station
objects crossing your sky now
Watch Starlink satellites crossing your sky!

COSMOS 2340

Track COSMOS 2340 now!
COSMOS 2340 is classified as:


NORAD ID: 24761
Int'l Code: 1997-015A
Perigee: 3,285.2 km
Apogee: 37,101.8 km
Inclination: 67.2 °
Period: 718.1 minutes
Semi major axis: 26564 km
RCS: 6.3095 m2 (large)
Launch date: April 9, 1997
Source: Commonwealth of Independent States (former USSR) (CIS)
Launch site: PLESETSK MISSILE AND SPACE COMPLEX (PKMTR)
aabbcc
Your satellite tracking list
Your tracking list is empty




NASA's NSSDC Master Catalog

Two Line Element Set (TLE):
1 24761U 97015A   19141.18372270 -.00000691 +00000-0 +00000-0 0  9995
2 24761 067.1660 011.0157 6364983 186.2376 158.4879 02.00516581162015
Source of the keplerian elements: AFSPC